Regional Weather Roundup
Issued by NWS Grand Forks, ND

Home | Current Version | Previous Version | Graphics & Text | Print | Product List | Glossary On
Versions: 1 2 3 4 5 6 7 8 9 10 11 12 13 14 15 16 17 18 19 20 21 22 23 24 25 26 27 28 29 30 31 32 33 34 35 36 37 38 39 40 41 42 43 44 45 46 47 48 49 50
000
ASUS43 KFGF 130631
RWRFGF
PRAIRIE TO PINES  WEATHER ROUNDUP
NATIONAL WEATHER SERVICE EASTERN NORTH DAKOTA/GRAND FORKS ND
100 AM CDT SUN JUL 13 2014

 **SATELLITE DATA USED TO AUGMENT SKY COVER AT AUTOMATED STATIONS**
 *****  WEATHER ACROSS EASTERN NORTH DAKOTA  *****

CITY           SKY/WX    TMP DP  RH WIND       PRES   REMARKS
GRAND FORKS    CLEAR     54  53  97 W6        29.96S
6HR MIN TEMP:  53; 6HR MAX TEMP:  70; 6HR PCP:  0.03;

GRAND FRKS AFB NOT AVBL
GRAND FRKS NWS   N/A     54 N/A N/A W2          N/A
DEVILS LAKE    CLEAR     59  48  67 NW10      29.98S
6HR MIN TEMP:  59; 6HR MAX TEMP:  64;

FARGO          CLEAR     61  54  77 N7        29.98R
WAHPETON ARPT  PTCLDY    55  50  82 NW6       29.99R
$$

 ***** WEATHER ACROSS CENTRAL AND WESTERN NORTH DAKOTA  *****

CITY           SKY/WX    TMP DP  RH WIND       PRES   REMARKS
BISMARCK       CLEAR     63  55  75 W7        30.07S
6HR MIN TEMP:  63; 6HR MAX TEMP:  81;

MINOT          CLEAR     61  46  57 W14       30.05S
6HR MIN TEMP:  61; 6HR MAX TEMP:  79;

JAMESTOWN      CLEAR     59  54  83 W5        30.02R
6HR MIN TEMP:  58; 6HR MAX TEMP:  79;

MINOT AFB      NOT AVBL
GARRISON         N/A     57  53  86 NW9       30.08R
WILLISTON      CLEAR     62  51  67 NE7       30.11R
6HR MIN TEMP:  62; 6HR MAX TEMP:  83;

DICKINSON      CLEAR     56  49  77 NW8       30.13S
6HR MIN TEMP:  56; 6HR MAX TEMP:  79;

HETTINGER      CLEAR     56  53  90 NW5       30.16F
6HR MIN TEMP:  56; 6HR MAX TEMP:  81;

$$

 *****  OTHER AIRPORT OBSERVATIONS IN OUR AREA  *****

CITY           SKY/WX    TMP DP  RH WIND       PRES   REMARKS
WALHALLA         N/A     54  54 100 SW5         N/A
GRAFTON AIRPOR FAIR      55  55 100 W8        29.94F
VALLEY CITY AR FAIR      55  55 100 W9        30.00F
CANDO          FAIR      50  48  93 W6        29.99F
CAVALIER APRT  FAIR      57  55  94 W5        29.94F
GWINNER        CLEAR     61  57  88 W6        30.02S
SHEYENNE NWR     N/A     56  54  93 W3        29.95S
ROLLA          FAIR      54  45  71 NW9       30.01S
 ***** THE ABOVE OBSERVATIONS ARE NON NWS ARE NOT QUALITY
       CONTROLLED AND MAY MIS-REPORT RAIN FOR SNOW...
$$

  *****  WEATHER ACROSS NORTHERN MINNESOTA  *****

CITY           SKY/WX    TMP DP  RH WIND       PRES   REMARKS
FLAG ISLAND    CLEAR     54  46  76 W14       29.86F
WARROAD        CLEAR     52  48  87 SW6       29.90F
ROSEAU         CLEAR     54  48  82 SW7       29.91S
HALLOCK        PTCLDY    55  54  94 W6        29.92F
THF RVR FALLS  CLOUDY    54  54 100 W6        29.95S VSB 1/2
6HR MIN TEMP:  54; 6HR MAX TEMP:  72; 6HR PCP:  0.10;

BAUDETTE       CLEAR     51  48  89 CALM      29.90F
6HR MIN TEMP:  51; 6HR MAX TEMP:  60; 6HR PCP:  0.04;

WASKISH        CLEAR     55  50  82 CALM      29.91S
CROOKSTON      PTCLDY    52  52 100 W3        29.96F FOG
$$
  *****  WEATHER ACROSS CENTRAL AND WEST MINNESOTA  *****

CITY           SKY/WX    TMP DP  RH WIND       PRES   REMARKS
FOSSTON        CLEAR     52  52 100 CALM      29.96F FOG
BEMIDJI        CLEAR     51  50  94 W5        29.94S
PARK RAPIDS    PTCLDY    57  54  89 NW8       29.94S
6HR MIN TEMP:  57; 6HR MAX TEMP:  74; 6HR PCP:  0.04;

ELBOW LAKE     FAIR      61  55  82 N5        29.96S
WADENA         MOCLDY    59  55  88 NW3       29.95R
DETROIT LAKES  PTCLDY    59  55  88 NW9       29.97S
MOORHEAD       CLEAR     61  59  94 NW5       29.99R
FERGUS FALLS   MOCLDY    59  54  82 W5        29.97R
MORRIS MN      CLEAR     63  59  88 N9        29.95R
STAPLES        CLOUDY    61  55  82 CALM      29.94S
$$
  *****  WEATHER ELSEWHERE ACROSS MINNESOTA  *****

CITY           SKY/WX    TMP DP  RH WIND       PRES   REMARKS
DULUTH         MOCLDY    58  53  84 NW7       29.86F
6HR MIN TEMP:  58; 6HR MAX TEMP:  73; 6HR PCP:  0.02;

INTRNTL FALLS  CLEAR     50  47  89 W6        29.88R
6HR MIN TEMP:  50; 6HR MAX TEMP:  73; 6HR PCP:  0.01;

ELY            CLOUDY    54  52  94 W7        29.85F
CLOQUET        MOCLDY    57  55  94 W5        29.88S
WHEATON        CLEAR     59  52  77 NW5       30.00R
BRAINERD       CLOUDY    67  56  67 CALM      29.93S
6HR MIN TEMP:  66; 6HR MAX TEMP:  78; 6HR PCP: TRACE;

HIBBING        MOCLDY    57  52  83 NW8       29.88S
6HR MIN TEMP:  56; 6HR MAX TEMP:  74; 6HR PCP:  0.09;

ALEXANDRIA     CLEAR     64  55  72 N8        29.97R
6HR MIN TEMP:  64; 6HR MAX TEMP:  75;

SAINT CLOUD    CLEAR     65  60  84 CALM      29.90F
6HR MIN TEMP:  64; 6HR MAX TEMP:  78;

MINNEAPOLIS    CLEAR     68  65  90 SW6       29.91F
6HR MIN TEMP:  68; 6HR MAX TEMP:  76;

$$

  *****  WEATHER ACROSS SOUTH DAKOTA  *****

CITY           SKY/WX    TMP DP  RH WIND       PRES   REMARKS
SIOUX FALLS    CLEAR     67  63  87 CALM      30.02S
6HR MIN TEMP:  67; 6HR MAX TEMP:  80;

BROOKINGS      NOT AVBL
WATERTOWN      MOCLDY    67  64  90 W6        30.01S
6HR MIN TEMP:  65; 6HR MAX TEMP:  76;

HURON          PTCLDY    69  64  84 W15       30.02S
6HR MIN TEMP:  69; 6HR MAX TEMP:  81;

SISSETON         N/A     61  55  81 N6        29.99R
ABERDEEN       CLEAR     62  61  96 W9        30.02R
6HR MIN TEMP:  62; 6HR MAX TEMP:  81;

MITCHELL       CLEAR     69  64  84 W5        30.04S
PIERRE         CLEAR     68  64  87 W7        30.06S
6HR MIN TEMP:  68; 6HR MAX TEMP:  80;

MOBRIDGE       CLEAR     63  60  90 NW5       30.05S
RAPID CITY     CLEAR     67  62  84 NW9       30.20S
6HR MIN TEMP:  65; 6HR MAX TEMP:  81;

$$

  *****  SOME WEATHER IN NEARBY STATES *****

CITY           SKY/WX    TMP DP  RH WIND       PRES   REMARKS
GLASGOW MT     NOT AVBL
GREAT FALLS MT NOT AVBL
CHEYENNE WY    CLOUDY    65  55  70 N9        30.41R
6HR MIN TEMP:  64; 6HR MAX TEMP:  77;

SCOTTSBLUFF NE PTCLDY    65  64  97 NW6       30.25R
6HR MIN TEMP:  65; 6HR MAX TEMP:  82; 6HR PCP:  0.01;

OMAHA NE       PTCLDY    71  66  84 CALM      30.02R
6HR MIN TEMP:  71; 6HR MAX TEMP:  81;

DES MOINES IA  PTCLDY    69  66  90 W3        29.99S
6HR MIN TEMP:  69; 6HR MAX TEMP:  81; 6HR PCP: TRACE;

DAVENPORT IA     N/A     69  67  93 W8        29.94R
6HR MIN TEMP:  69; 6HR MAX TEMP:  82; 6HR PCP:  0.28;

CHICAGO IL     LGT RAIN  71  66  84 S5        29.85F
6HR MIN TEMP:  71; 6HR MAX TEMP:  79; 6HR PCP:  0.35;

EAU CLAIRE WI  CLEAR     63  63 100 W5        29.89F
6HR MIN TEMP:  63; 6HR MAX TEMP:  68; 6HR PCP: TRACE;

LA CROSSE WI   PTCLDY    64  62  93 SE5       29.91F FOG
6HR MIN TEMP:  63; 6HR MAX TEMP:  70; 6HR PCP: TRACE;

$$

  *****  SOME NATIONAL WEATHER *****

CITY           SKY/WX    TMP DP  RH WIND       PRES   REMARKS
LA GUARDIA NY  MOCLDY    72  65  78 S6        30.11F
6HR MIN TEMP:  72; 6HR MAX TEMP:  75;

RALEIGH NC     PTCLDY    75  69  81 S6        30.15F
6HR MIN TEMP:  75; 6HR MAX TEMP:  84;

ATLANTA GA     PTCLDY    75  68  78 CALM      30.14F
6HR MIN TEMP:  75; 6HR MAX TEMP:  87;

NEW ORLEANS LA PTCLDY    81  75  82 SE3       30.05F
6HR MIN TEMP:  81; 6HR MAX TEMP:  88;

OKLAHOMA CITY  CLEAR     71  60  68 S6        30.07S
6HR MIN TEMP:  71; 6HR MAX TEMP:  91;

ALBUQUERQUE NM PTCLDY    77  50  38 S3        30.24R
6HR MIN TEMP:  77; 6HR MAX TEMP:  90;

SALT LAKE CITY NOT AVBL
LOS ANGELES CA MOCLDY    68  61  78 W8        29.95S
6HR MIN TEMP:  68; 6HR MAX TEMP:  74;

BOISE ID       NOT AVBL
SEATTLE WA     CLEAR     73  53  49 N8        30.09R
6HR MIN TEMP:  72; 6HR MAX TEMP:  90;

$$

*** WEATHER ACROSS MANITOBA...SASKATCHEWAN AND ONTARIO ***
                ***ONTARIO***


USA.gov is the U.S. government's official web portal to all federal, state and local government web resources and services.